Weather History for Doylestown, PA

Change the Weather History Date:

Saturday, September 28, 2013

  Actual Average (KTTN) Record (KTTN)
Temperature  
Mean Temperature 61 °F 61 °F  
Max Temperature 72 °F 71 °F 88 °F (1891)
Min Temperature 52 °F 51 °F 37 °F (1991)
Degree Days  
Heating Degree Days 4 5  
Month to date heating degree days 50  
Since 1 July heating degree days 53  
Cooling Degree Days 0 1  
Month to date cooling degree days 97  
Year to date cooling degree days 953  
Growing Degree Days 11 (Base 50)    
Moisture  
Dew Point 51 °F    
Average Humidity 76    
Maximum Humidity 100    
Minimum Humidity 44    
Precipitation  
Precipitation 0.00 in 0.17 in 5.74 in (2004)
Month to date precipitation 3.96  
Year to date precipitation 34.94  
Sea Level Pressure  
Sea Level Pressure 30.28 in    
Wind  
Wind Speed 1 mph (NNE)    
Max Wind Speed 7 mph    
Max Gust Speed -    
Visibility 10 miles    
Events      
T = Trace of Precipitation, MM = Missing Value Source: NWS Daily Summary

Daily Weather History Graph

Daily Weather History Graph

Search for Another Location

Airport:

Trip Planner

Search our weather history database for the weather conditions in past years. The results will help you decide how hot, cold, wet, or windy it might be!

Date:

Astronomy

Sep. 28, 2013 Rise Set
Actual Time 6:54 AM EDT 6:47 PM EDT
Civil Twilight 6:27 AM EDT 7:14 PM EDT
Nautical Twilight 5:55 AM EDT 7:45 PM EDT
Astronomical Twilight 5:23 AM EDT 8:17 PM EDT
Moon 12:38 AM EDT (9/28) 3:05 PM EDT (9/28)
Length of Visible Light 12h 47m
Length of Day
11h 53m
Last Quarter, 36% of the Moon is Illuminated
Sep 28
Last Quarter
Oct 4
New
Oct 11
First Quarter
Oct 18
Full
Oct 26
Last Quarter

Hourly Weather History & Observations

Time (EDT) Temp. Dew Point Humidity Pressure Visibility Wind Dir Wind Speed Gust Speed Precip Events Conditions
12:54 AM 53.1 °F 53.1 °F 100% 30.27 in 10.0 mi Calm Calm - N/A   Overcast
1:54 AM 55.0 °F 54.0 °F 96% 30.27 in 10.0 mi Calm Calm - N/A   Overcast
2:54 AM 55.0 °F 54.0 °F 96% 30.26 in 10.0 mi Calm Calm - N/A   Overcast
3:54 AM 55.0 °F 54.0 °F 96% 30.26 in 10.0 mi Calm Calm - N/A   Overcast
4:54 AM 55.0 °F 54.0 °F 96% 30.27 in 10.0 mi Calm Calm - N/A   Overcast
5:54 AM 55.9 °F 54.0 °F 93% 30.28 in 10.0 mi Calm Calm - N/A   Overcast
6:54 AM 55.9 °F 54.0 °F 93% 30.30 in 10.0 mi Calm Calm - N/A   Overcast
7:54 AM 55.9 °F 53.1 °F 90% 30.31 in 10.0 mi NNE 4.6 mph - N/A   Mostly Cloudy
8:54 AM 60.1 °F 53.1 °F 78% 30.32 in 10.0 mi NNE 5.8 mph - N/A   Clear
9:54 AM 63.0 °F 53.1 °F 70% 30.32 in 10.0 mi NE 4.6 mph - N/A   Unknown
10:54 AM 64.9 °F 51.1 °F 61% 30.33 in 10.0 mi NE 6.9 mph - N/A   Clear
11:54 AM 66.9 °F 46.0 °F 47% 30.31 in 10.0 mi Calm Calm - N/A   Clear
12:54 PM 68.0 °F 51.1 °F 55% 30.30 in 10.0 mi Variable 4.6 mph - N/A   Clear
1:54 PM 69.1 °F 50.0 °F 51% 30.27 in 10.0 mi Variable 3.5 mph - N/A   Scattered Clouds
2:54 PM 70.0 °F 48.9 °F 47% 30.27 in 10.0 mi Variable 6.9 mph - N/A   Mostly Cloudy
3:54 PM 70.0 °F 46.9 °F 44% 30.25 in 10.0 mi Variable 4.6 mph - N/A   Clear
4:54 PM 69.1 °F 46.9 °F 45% 30.25 in 10.0 mi Variable 3.5 mph - N/A   Partly Cloudy
5:54 PM 68.0 °F 48.0 °F 49% 30.25 in 10.0 mi Calm Calm - N/A   Clear
6:54 PM 61.0 °F 51.1 °F 70% 30.25 in 10.0 mi Calm Calm - N/A   Clear
7:54 PM 57.0 °F 53.1 °F 87% 30.26 in 10.0 mi Calm Calm - N/A   Clear
8:54 PM 55.9 °F 52.0 °F 87% 30.26 in 10.0 mi Calm Calm - N/A   Clear
9:54 PM 55.0 °F 52.0 °F 89% 30.26 in 10.0 mi Calm Calm - N/A   Clear
10:54 PM 52.0 °F 51.1 °F 97% 30.26 in 10.0 mi Calm Calm - N/A   Clear
11:54 PM 52.0 °F 51.1 °F 97% 30.24 in 10.0 mi Calm Calm - N/A   Clear